[[{"header":{"parameterUnit":"m.s-1","parameterCategory":1,"la1":30.2991,"la2":30.254,"lo1":-89.0895,"lo2":-89.0444,"dy":0.0017,"dx":0.0017,"nx":28,"ny":28,"refTime":"2024-05-12T21:00:00:Z","depth":0,"parameterNumber":2,"parameterNumberName":"U-component_of_WINDS"},"data":[0,0,0,0,0,0,0,0,0,0,0,0,0,0,0,0,0,0,0,0,0,0,0,0,0,0,0,0,0,0,0,0,0,0,0,0,0,0,0,0,0,0,0,0,0,0,0,0,0,0,0,0,0,0,0,0,0,0,-1.1891,-1.1892,0,-1.2021,-1.2023,-1.2024,-1.2114,-1.2115,-1.2116,-1.2116,-1.2254,-1.2257,-1.226,0,0,0,0,0,0,0,0,0,0,0,0,0,-1.1725,-1.1728,-1.1891,-1.1892,-1.1894,-1.2021,-1.2023,-1.2024,-1.2114,-1.2115,-1.2116,-1.2117,-1.2253,-1.2257,-1.226,0,0,0,0,0,0,0,0,0,0,0,0,0,-1.182,-1.1728,-1.189,-1.1954,-1.1961,-1.202,-1.2023,-1.2025,-1.2114,-1.2115,-1.2116,-1.2117,-1.2252,-1.2256,-1.2261,-1.2269,0,0,-1.2275,-1.2277,0,0,0,0,0,0,0,0,-1.1815,-1.1826,-1.1943,-1.195,-1.1958,-1.2052,-1.2015,-1.2107,-1.2114,-1.2056,-1.2116,-1.2118,-1.2186,-1.2196,-1.2219,-1.2275,-1.2281,-1.2275,-1.2278,-1.228,-1.2281,0,0,0,0,0,0,0,-1.1808,-1.1821,-1.1943,-1.1945,-1.1954,-1.1978,-1.1992,-1.2033,-1.2114,-1.2061,-1.2068,-1.2082,-1.2191,-1.2214,-1.2223,-1.2283,-1.2275,-1.2279,-1.2282,-1.2284,-1.2354,-1.2353,0,0,0,0,0,0,-1.1791,-1.1815,-1.1938,-1.1946,-1.1887,-1.198,-1.1996,-1.2021,-1.2114,-1.2129,-1.2081,-1.2086,-1.2206,-1.2217,-1.2228,-1.2244,-1.228,-1.2284,-1.2287,-1.2355,-1.2354,-1.2353,0,0,0,0,0,0,-1.1787,-1.1801,-1.1933,-1.1883,-1.1901,-1.1982,-1.2009,-1.2023,-1.2047,-1.2129,-1.2144,-1.209,-1.2207,-1.2222,-1.2258,-1.225,-1.2286,-1.229,-1.2356,-1.2355,-1.2353,-1.2276,0,0,0,0,0,0,-1.1782,-1.1799,-1.1801,-1.1882,-1.1904,-1.1959,-1.2008,-1.2025,-1.2054,-1.2061,-1.2141,-1.2155,-1.2209,-1.2251,-1.2262,-1.2257,-1.2294,-1.2357,-1.2355,-1.2354,-1.2279,-1.2272,-1.2265,0,0,0,0,0,-1.1775,-1.1775,-1.1801,-1.1816,-1.1908,-1.1958,-1.1971,-1.2032,-1.2053,-1.2057,-1.211,-1.2153,-1.2249,-1.2254,-1.2268,-1.2263,-1.2358,-1.2356,-1.2354,-1.2282,-1.2273,-1.2266,0,0,0,0,0,0,-1.1693,-1.1787,-1.1817,-1.1842,-1.1891,-1.1973,-1.1981,-1.202,-1.2065,-1.2071,-1.2145,-1.2163,-1.2191,-1.2232,-1.2235,-1.2277,-1.2309,-1.2309,-1.225,-1.2242,-1.2235,-1.2225,-1.2298,0,0,0,0,0,-1.1678,-1.1709,-1.179,-1.1805,-1.1828,-1.1899,-1.1924,-1.1966,-1.2021,-1.2043,-1.2098,-1.2151,-1.2194,-1.222,-1.2263,-1.2285,-1.2305,-1.229,-1.2283,-1.2277,-1.2277,-1.2293,-1.2287,-1.2347,-1.2347,-1.2347,0,0,-1.1647,-1.1702,-1.1717,-1.1789,-1.1833,-1.1865,-1.1917,-1.1949,-1.1974,-1.2048,-1.2086,-1.2128,-1.2192,-1.2222,-1.2238,-1.2256,-1.2265,-1.2274,-1.2269,-1.2272,-1.229,-1.2285,-1.228,-1.2345,-1.2346,-1.2346,0,0,-1.1607,-1.1651,-1.1668,-1.171,-1.1775,-1.1822,-1.1826,-1.1903,-1.1934,-1.1972,-1.2029,-1.2061,-1.2131,-1.2175,-1.2206,-1.2183,-1.2225,-1.2195,-1.216,-1.2174,-1.217,-1.2166,-1.2159,-1.2155,-1.2195,-1.2195,-1.2195,0,-1.1561,-1.161,-1.1673,-1.1701,-1.1732,-1.1799,-1.1818,-1.1857,-1.1932,-1.1953,-1.1972,-1.2063,-1.211,-1.2152,-1.2146,-1.2169,-1.2177,-1.2187,-1.2165,-1.2162,-1.2159,-1.2153,-1.215,-1.2191,-1.2191,-1.2192,-1.2192,0,-1.155,-1.1584,-1.1591,-1.166,-1.1692,-1.1716,-1.1784,-1.1808,-1.1848,-1.1894,-1.1933,-1.1993,-1.205,-1.2063,-1.2102,-1.211,-1.212,-1.2151,-1.2184,-1.2149,-1.2144,-1.2142,-1.2185,-1.2187,-1.2188,-1.2189,0,0,-1.1463,-1.1567,-1.1568,-1.1601,-1.1677,-1.1705,-1.1732,-1.1787,-1.1807,-1.1857,-1.1883,-1.1941,-1.1971,-1.2006,-1.2052,-1.2064,-1.2043,-1.2095,-1.2097,-1.2084,-1.2057,-1.2033,-1.2029,-1.2071,-1.2071,-1.2071,-1.2052,0,-1.1435,-1.1486,-1.1544,-1.1575,-1.1608,-1.1672,-1.1697,-1.1746,-1.179,-1.1826,-1.1876,-1.1916,-1.1951,-1.1973,-1.1989,-1.2042,-1.2039,-1.2045,-1.2098,-1.2099,-1.208,-1.2027,-1.2003,-1.1982,-1.205,-1.205,-1.205,0,-1.141,-1.1455,-1.1489,-1.1563,-1.1579,-1.1599,-1.1654,-1.1686,-1.1745,-1.1777,-1.1816,-1.1864,-1.1898,-1.1927,-1.1976,-1.1978,-1.2004,-1.2033,-1.2034,-1.2042,-1.2073,-1.2035,-1.1976,-1.1973,-1.2048,-1.2048,-1.2048,0,-1.1344,-1.1413,-1.1443,-1.1469,-1.1555,-1.1568,-1.1605,-1.1665,-1.1694,-1.1742,-1.1762,-1.1814,-1.1843,-1.1883,-1.1945,-1.196,-1.1988,-1.2022,-1.2016,-1.2014,-1.202,-1.2018,-1.1965,-1.2034,-1.2034,-1.2034,-1.2034,0,-1.1307,-1.1326,-1.1415,-1.1433,-1.1457,-1.1523,-1.1545,-1.1588,-1.164,-1.167,-1.1729,-1.1755,-1.1834,-1.1871,-1.1919,-1.1953,-1.1966,-1.1993,-1.2006,-1.1988,-1.1985,-1.2006,-1.201,-1.2033,-1.2034,-1.2034,-1.2034,0,-1.1238,-1.1297,-1.1334,-1.1412,-1.1432,-1.1446,-1.1514,-1.1535,-1.1582,-1.1619,-1.1631,-1.1706,-1.1752,-1.1817,-1.1883,-1.1916,-1.1943,-1.1963,-1.1923,-1.193,-1.1922,-1.1922,-1.1881,-1.188,-1.1948,-1.1947,-1.1946,0,-1.1211,-1.1227,-1.1306,-1.1329,-1.1363,-1.1399,-1.1429,-1.1496,-1.1524,-1.1592,-1.1606,-1.1656,-1.17,-1.1771,-1.1832,-1.1883,-1.1906,-1.1888,-1.1914,-1.1896,-1.1907,-1.1905,-1.1908,-1.1882,-1.1881,-1.188,-1.1879,0,-1.1158,-1.1187,-1.1226,-1.1276,-1.1309,-1.1352,-1.1398,-1.1414,-1.1491,-1.152,-1.1567,-1.1601,-1.1668,-1.1718,-1.1777,-1.1817,-1.1861,-1.187,-1.1872,-1.1854,-1.1831,-1.1844,-1.1906,-1.1871,-1.1872,-1.1872,-1.1873,-1.1873,-1.111,-1.1127,-1.1185,-1.1228,-1.1269,-1.131,-1.1334,-1.1384,-1.1423,-1.1482,-1.1519,-1.1564,-1.1624,-1.1708,-1.1746,-1.1784,-1.1802,-1.1804,-1.1805,-1.1804,-1.1799,-1.1823,-1.1795,-1.1795,-1.1795,-1.1796,-1.1796,0,-1.1061,-1.1101,-1.1139,-1.1201,-1.1234,-1.1271,-1.1324,-1.135,-1.1388,-1.1439,-1.148,-1.1535,-1.1583,-1.1648,-1.1702,-1.1719,-1.1741,-1.1731,-1.1731,-1.174,-1.1779,-1.1772,-1.1713,-1.1713,-1.1713,-1.1713,-1.1713,-1.1713,-1.104,-1.1071,-1.1106,-1.1159,-1.12,-1.1243,-1.127,-1.1309,-1.135,-1.1407,-1.1447,-1.1488,-1.1546,-1.1604,-1.165,-1.1668,-1.1686,-1.167,-1.1694,-1.173,-1.1737,-1.1744,-1.1739,-1.1673,-1.1673,-1.1653,-1.1652,-1.1652]},{"header":{"parameterUnit":"m.s-1","parameterCategory":1,"la1":30.2991,"la2":30.254,"lo1":-89.0895,"lo2":-89.0444,"dy":0.0017,"dx":0.0017,"nx":28,"ny":28,"refTime":"2024-05-12T21:00:00:Z","depth":0,"parameterNumber":3,"parameterNumberName":"V-component_of_WINDS"},"data":[0,0,0,0,0,0,0,0,0,0,0,0,0,0,0,0,0,0,0,0,0,0,0,0,0,0,0,0,0,0,0,0,0,0,0,0,0,0,0,0,0,0,0,0,0,0,0,0,0,0,0,0,0,0,0,0,0,0,7.4571,7.4571,0,7.4501,7.45,7.4499,7.4373,7.437,7.4368,7.4366,7.4295,7.4295,7.4296,0,0,0,0,0,0,0,0,0,0,0,0,0,7.4598,7.4599,7.4571,7.4571,7.457,7.4501,7.45,7.4499,7.4373,7.437,7.4367,7.4365,7.4295,7.4295,7.4296,0,0,0,0,0,0,0,0,0,0,0,0,0,7.4563,7.4599,7.4572,7.4498,7.4491,7.4501,7.45,7.4499,7.4374,7.437,7.4367,7.4363,7.4295,7.4295,7.4296,7.4372,0,0,7.4298,7.4298,0,0,0,0,0,0,0,0,7.4566,7.4563,7.451,7.4504,7.4495,7.4442,7.4483,7.4456,7.4375,7.4419,7.4366,7.4361,7.4347,7.4343,7.4338,7.4369,7.4365,7.4298,7.4298,7.4298,7.4298,0,0,0,0,0,0,0,7.4568,7.4565,7.4543,7.451,7.4501,7.447,7.4461,7.4478,7.4404,7.4414,7.4405,7.4398,7.4342,7.4338,7.4335,7.4364,7.4298,7.4298,7.4298,7.4299,7.4452,7.4456,0,0,0,0,0,0,7.4581,7.4568,7.4546,7.4541,7.4522,7.4472,7.4462,7.4463,7.4403,7.4391,7.4402,7.4393,7.4338,7.4335,7.4332,7.4415,7.4298,7.4299,7.4299,7.4449,7.4453,7.4457,0,0,0,0,0,0,7.4582,7.458,7.4549,7.4552,7.4546,7.4476,7.4477,7.4463,7.4458,7.4394,7.438,7.441,7.4335,7.4331,7.4362,7.4411,7.4299,7.4299,7.4444,7.445,7.4455,7.4584,0,0,0,0,0,0,7.4583,7.4581,7.4609,7.4554,7.4546,7.458,7.448,7.4465,7.4459,7.4447,7.4398,7.4386,7.4332,7.4362,7.4363,7.441,7.43,7.444,7.4447,7.4454,7.4575,7.4593,7.4609,0,0,0,0,0,7.4585,7.4649,7.4611,7.4609,7.4579,7.4583,7.4579,7.4514,7.4464,7.4491,7.445,7.4388,7.4407,7.4367,7.4366,7.4414,7.4436,7.4445,7.4453,7.4567,7.459,7.4608,0,0,0,0,0,0,7.4712,7.464,7.4598,7.4645,7.4621,7.4562,7.4594,7.454,7.453,7.4519,7.4441,7.4431,7.4472,7.4446,7.4403,7.4484,7.4412,7.442,7.4499,7.4519,7.4536,7.454,7.43,0,0,0,0,0,7.4746,7.4755,7.4692,7.474,7.473,7.4665,7.4664,7.4617,7.4589,7.4578,7.4538,7.4514,7.4514,7.4516,7.4512,7.4572,7.4558,7.4604,7.4622,7.4636,7.4643,7.4671,7.4691,7.4485,7.4485,7.4485,0,0,7.4816,7.4777,7.4788,7.4764,7.474,7.4751,7.4657,7.4673,7.468,7.458,7.4606,7.4577,7.4545,7.459,7.4608,7.457,7.4698,7.4646,7.4658,7.4658,7.4682,7.4702,7.4719,7.4491,7.449,7.4489,0,0,7.4947,7.492,7.4956,7.4934,7.4898,7.4854,7.4864,7.4812,7.4788,7.4814,7.4739,7.4747,7.4749,7.4728,7.4718,7.4843,7.4786,7.4845,7.4933,7.4961,7.4977,7.4991,7.5033,7.505,7.4853,7.4854,7.4854,0,7.5038,7.5051,7.4982,7.5002,7.4994,7.4904,7.494,7.4922,7.4888,7.4884,7.4843,7.4843,7.4815,7.4853,7.4884,7.4879,7.4886,7.4849,7.498,7.4993,7.5005,7.5045,7.5061,7.4861,7.486,7.4859,7.4859,0,7.5163,7.5174,7.5208,7.5176,7.5172,7.52,7.5135,7.514,7.5094,7.5055,7.5081,7.5045,7.5031,7.5038,7.4993,7.507,7.5047,7.4994,7.4919,7.5033,7.5069,7.5084,7.4871,7.4869,7.4867,7.4865,0,0,7.5371,7.5301,7.5315,7.5298,7.5253,7.526,7.5285,7.5271,7.5276,7.5256,7.5273,7.5278,7.5228,7.5217,7.517,7.5195,7.5294,7.5138,7.5136,7.5166,7.5374,7.5412,7.5431,7.5256,7.5259,7.5261,7.5375,0,7.5491,7.5528,7.5467,7.5518,7.5526,7.5442,7.5463,7.5438,7.5403,7.5405,7.5366,7.5369,7.5304,7.5297,7.5318,7.5277,7.5334,7.5268,7.5271,7.5272,7.5279,7.545,7.549,7.56,7.5389,7.5392,7.5393,0,7.5635,7.5621,7.5673,7.5624,7.5625,7.5645,7.5628,7.5631,7.5601,7.5573,7.5561,7.5505,7.5525,7.5456,7.5482,7.5439,7.5437,7.5417,7.542,7.5415,7.5338,7.5448,7.5633,7.5649,7.5415,7.5413,7.5412,0,7.5779,7.5774,7.5803,7.5793,7.5737,7.5753,7.573,7.5696,7.5692,7.5678,7.5674,7.5663,7.5656,7.5648,7.559,7.5545,7.5623,7.5549,7.56,7.5601,7.5618,7.5617,7.5804,7.5621,7.5621,7.5621,7.5621,0,7.5918,7.5952,7.5867,7.5885,7.5921,7.5852,7.5889,7.5858,7.5829,7.584,7.5768,7.5779,7.5703,7.5706,7.5662,7.5689,7.5688,7.5665,7.5652,7.567,7.5673,7.5665,7.5655,7.5625,7.5624,7.5623,7.5623,0,7.6083,7.6028,7.6054,7.5999,7.5986,7.6015,7.5968,7.5982,7.5943,7.5957,7.5957,7.5895,7.5895,7.5837,7.5825,7.5795,7.5841,7.5816,7.5851,7.5842,7.5895,7.589,7.6081,7.6102,7.591,7.5912,7.5913,0,7.6174,7.6198,7.6146,7.6148,7.6129,7.6133,7.6128,7.6061,7.6059,7.6026,7.6045,7.6039,7.603,7.6035,7.5988,7.5979,7.5951,7.6019,7.5949,7.5966,7.5949,7.5947,7.5948,7.6033,7.6035,7.6037,7.6039,0,7.6341,7.6312,7.6308,7.6294,7.629,7.6277,7.6258,7.6264,7.619,7.6192,7.6191,7.6185,7.6172,7.6167,7.6149,7.6126,7.607,7.6062,7.6072,7.6089,7.6108,7.6096,7.5888,7.6057,7.6055,7.6054,7.6053,7.6052,7.647,7.6487,7.6452,7.645,7.6429,7.6414,7.6424,7.6386,7.6384,7.6368,7.633,7.6335,7.6303,7.6273,7.6255,7.6258,7.6224,7.624,7.6244,7.6248,7.6257,7.611,7.6255,7.6254,7.6253,7.6253,7.6253,0,7.663,7.6604,7.6603,7.6579,7.6577,7.6526,7.6503,7.6504,7.651,7.6485,7.6478,7.6477,7.6471,7.6425,7.6414,7.6425,7.6399,7.6424,7.6422,7.6417,7.629,7.628,7.6445,7.6445,7.6445,7.6445,7.6445,7.6445,7.6714,7.6739,7.6707,7.6722,7.6696,7.67,7.6691,7.6676,7.6656,7.6657,7.6652,7.6622,7.6589,7.6575,7.6567,7.6554,7.6552,7.6585,7.6563,7.6445,7.6426,7.6408,7.6399,7.6586,7.6586,7.6689,7.669,7.6691]}]]